PRAETORIAN SDA_603

Last updated on Thu Aug 20 2026 00:03:39 GMT+0000 (Coordinated Universal Time)

1 65566U 25203B 26231.16542835 .00000200 00000+0 16928-3 0 9998 2 65566 81.3056 312.3944 0010020 28.4840 331.6862 13.83964798 47411
UTC large
Height (km)
Speed (km/s)
/
Latitude / Longitude
Inclination (degrees)
Orbital Period (minutes)
Azimuth
Elevation
Range (km)
Doppler Factor

Next 0 passes for location: London (51.5072 / 0.1276)

No passes found over London.
PRAETORIAN SDA_603